Regional Weather Roundup
Issued by NWS Upton, NY

Current Version | Previous Version | Text Only | Print | Product List | Glossary Off
Versions: 1 2 3 4 5 6 7 8 9 10 11 12 13 14 15 16 17 18 19 20 21 22 23 24 25 26 27 28 29 30 31 32 33 34 35 36 37 38 39 40 41 42 43 44 45 46 47 48 49 50
000 ASUS41 KOKX 291408 RWROKX REGIONAL WEATHER ROUNDUP NATIONAL WEATHER SERVICE NEW YORK NY 1000 AM EDT WED JUL 29 2015 NOTE: "FAIR" INDICATES FEW OR NO CLOUDS BELOW 12,000 FEET WITH NO SIGNIFICANT WEATHER AND/OR OBSTRUCTIONS TO VISIBILITY. NYZ071-072-176-178-NJZ106-104-291500- NEW YORK CITY METRO AREA CITY SKY/WX TMP DP RH WIND PRES REMARKS CENTRAL PARK SUNNY 87 66 49 VRB3 30.02S LAGUARDIA APRT PTSUNNY 89 65 44 NE6 29.98S HX 91 KENNEDY INTL PTSUNNY 93 63 36 VRB3 29.99S HX 94 NEWARK/LIBERTY PTSUNNY 88 65 46 NE5 29.98S HX 90 BRNX BOT. GARD N/A 88 70 55 CALM 30.00S HX 92 TETERBORO SUNNY 88 65 46 NE5 29.98S HX 90 $$ NYZ177-179-078>081-291500- LONG ISLAND NEW YORK CITY SKY/WX TMP DP RH WIND PRES REMARKS FARMINGDALE MOSUNNY 89 66 46 N3 29.99S HX 91 ISLIP PTSUNNY 88 70 55 CALM 29.98R HX 93 SHIRLEY SUNNY 88 69 53 CALM 29.99S HX 92 WESTHAMPTON SUNNY 89 67 47 NW3 30.00S HX 92 MONTAUK POINT N/A 84 71 65 S3 29.99S $$ NYZ052-065-067-291500- HUDSON VALLEY CITY SKY/WX TMP DP RH WIND PRES REMARKS WHITE PLAINS SUNNY 86 68 54 N6 30.00S NEWBURGH SUNNY 81 70 69 CALM 30.03S MONTGOMERY SUNNY 83 68 60 CALM 30.01S POUGHKEEPSIE SUNNY 82 68 62 CALM 30.00S ALBANY PTSUNNY 81 63 54 CALM 30.00S $$ NJZ001-105-106-008-010-013-015-019>022-104-291500- NEW JERSEY CITY SKY/WX TMP DP RH WIND PRES REMARKS NEWARK/LIBERTY PTSUNNY 88 65 46 NE5 29.98S HX 90 TETERBORO SUNNY 88 65 46 NE5 29.98S HX 90 CALDWELL SUNNY 86 66 51 VRB3 30.00S MORRISTOWN CLOUDY 86 72 62 CALM 30.00S HX 92 SOMERVILLE SUNNY 87 68 52 CALM 29.98S HX 90 SUSSEX SUNNY 82 69 64 CALM 30.02S ANDOVER N/A 82 69 64 E3 30.03S TRENTON SUNNY 86 69 56 W3 30.00R HX 90 MILLVILLE SUNNY 84 73 69 SW8 30.03R HX 90 ATLANTIC CITY MOSUNNY 83 74 74 NW5 30.02S WRIGHTSTOWN SUNNY 87 72 60 W3 29.98S HX 93 TOMS RIVER SUNNY 86 70 58 CALM 30.01R HX 90 BELMAR SUNNY 86 70 58 W5 30.00S HX 90 $$ PAZ047>061-062-071-291500- EASTERN PENNSYLVANIA CITY SKY/WX TMP DP RH WIND PRES REMARKS PHILADELPHIA PTSUNNY 84 73 69 SW8 30.01S HX 90 ALLENTOWN SUNNY 83 69 62 CALM 30.01S SCRANTON MOSUNNY 79 66 64 CALM 30.04F $$ CTZ002-004>006-009-010-012-RIZ004-006-007-MAZ004-011-015-291500- SOUTHERN NEW ENGLAND IN CT CITY SKY/WX TMP DP RH WIND PRES REMARKS BRADLEY INTL PTSUNNY 83 66 56 CALM 29.98S HARTFORD MOSUNNY 82 70 66 SE5 29.98R DANBURY SUNNY 85 67 54 NE3 30.02S WTRBRY/OXFORD PTSUNNY 82 70 65 NW3 30.04R BRIDGEPORT SUNNY 80 69 69 S6 29.99S MERIDEN MOSUNNY 86 67 52 CALM 29.98S NEW HAVEN PTSUNNY 83 70 64 S7 29.98S CHESTER FAIR 84 70 61 SW3 30.01R GROTON MOSUNNY 76 69 79 S7 29.97S WILLIMANTIC MOSUNNY 83 69 62 CALM 29.98S IN RI CITY SKY/WX TMP DP RH WIND PRES REMARKS PROVIDENCE PTSUNNY 86 69 56 CALM 29.97S HX 90 BLOCK ISLAND N/A 84 70 61 SW6 30.00R WESTERLY MOSUNNY 84 71 65 CALM 29.99R IN MA CITY SKY/WX TMP DP RH WIND PRES REMARKS BOSTON PTSUNNY 82 69 64 SE6 29.96S WORCESTER MOSUNNY 82 65 56 NW8 30.02R WESTFIELD MOSUNNY 82 68 62 CALM 29.99S PROVINCETOWN SUNNY 79 66 65 NW6 29.96S NANTUCKET SUNNY 86 68 54 N6 29.96S $$ ANZ330-335-338-340-345-350-353-355-291500- COASTAL MARINE OBSERVATIONS STATION/POSITION TIME SKY/WX TEMP WIND PRES VSBY WAVE AIR SEA DIR/SP/G HT/PER (UTC) (F) (DEG/KT/KT) (MB) (MI) (FT/S) NY HARB ENTRANCE 1350 77 77 270/ 4/ 4 1015.3 2/ 7 4S FIRE IS NOT AVBL 20S FIRE ISLAND 1350 76 74 230/ 2/ 4 1015.4 2/ 7 GREAT SOUTH BAY 1330 80 81 210/ 2/ 4 N/A 23SW MTP 1350 74 73 250/ 4/ 4 1015.1 2/ 7 HUDSON CANYON NOT AVBL KINGS POINT 1300 83 69 10/ 2/ 3 1014.8 EXECUTION ROCKS 1300 78 100/ 2/ 2 N/A CENTRAL LI SOUND NOT AVBL EASTERN LI SOUND 1300 82 70 CALM / 4 N/A ROBBINS REEF 1300 80 10/ 3/ 4 1014.3 $$ >>>>>>>>>>>>>>>>>>>>>>>>>>>> KEY <<<<<<<<<<<<<<<<<<<<<<<<<<< > < > SKY/WX - SKY CONDITION/PRESENT WEATHER < > TMP - TEMPERATURE IN FAHRENHEIT < > DP - DEWPOINT IN FAHRENHEIT < > RH - RELATIVE HUMIDITY IN PERCENT < > WIND - DIRECTION AND SPEED IN MPH < > PRES - MEAN SEA LEVEL PRESSURE IN INCHES OF HG < > WCI - WIND CHILL INDEX < > VSB - VISIBILITY IN MILES < > HX - HEAT INDEX < > TC - TEMPERATURE IN CELSIUS < > VRB - VARIABLE WIND DIRECTION < > < >>>>>>>>>>>>>>>>>>>>>>>>>>>> KEY <<<<<<<<<<<<<<<<<<<<<<<<<<<

USA.gov is the U.S. government's official web portal to all federal, state and local government web resources and services.